This is the latest recevied weather packets stored in our database for station/object OK5TVR-5. If no packets are shown the sender has not sent any weather packets the latest 10 day(s).
| Time | Temp. | Humidity | Pressure | Rain* | Wind** | Luminosity | Snow |
|---|---|---|---|---|---|---|---|
| 1777658618 | 17.22° C | 47% | 1017.8 hPa | 0 mm | - | - | - |
| 1777657717 | 18.89° C | 40% | 1017.7 hPa | 0 mm | - | - | - |
| 1777656816 | 20° C | 36% | 1017.4 hPa | 0 mm | - | - | - |
| 1777656815 | 20° C | 36% | 1017.4 hPa | 0 mm | - | - | - |
| 1777655913 | 21.67° C | 36% | 1017.3 hPa | 0 mm | - | - | - |
| 1777655913 | 21.67° C | 36% | 1017.3 hPa | 0 mm | - | - | - |
| 1777655015 | 23.89° C | 27% | 1017 hPa | 0 mm | - | - | - |
| 1777655011 | 23.89° C | 27% | 1017 hPa | 0 mm | - | - | - |
| 1777655011 | 23.89° C | 27% | 1017 hPa | 0 mm | - | - | - |
| 1777655011 | 23.89° C | 27% | 1017 hPa | 0 mm | - | - | - |
| 1777654111 | 23.33° C | - | - | - | - | - | - |
| 1777653214 | 23.33° C | 29% | 1017.1 hPa | 0 mm | - | - | - |
| 1777653209 | 23.33° C | 29% | 1017.1 hPa | 0 mm | - | - | - |
| 1777653209 | 23.33° C | 29% | 1017.1 hPa | 0 mm | - | - | - |
| 1777653209 | 23.33° C | 29% | 1017.1 hPa | 0 mm | - | - | - |
| 1777652308 | 23.33° C | 29% | 1017.1 hPa | 0 mm | - | - | - |
| 1777652308 | 23.33° C | 29% | 1017.1 hPa | 0 mm | - | - | - |
| 1777651409 | 23.33° C | 27% | 1017.1 hPa | 0 mm | - | - | - |
| 1777651407 | 23.33° C | 27% | 1017.1 hPa | 0 mm | - | - | - |
| 1777651407 | 23.33° C | 27% | 1017.1 hPa | 0 mm | - | - | - |
| 1777651407 | 23.33° C | 27% | 1017.1 hPa | 0 mm | - | - | - |
| 1777650506 | 23.33° C | 27% | 1017.1 hPa | 0 mm | - | - | - |
| 1777649604 | 23.33° C | 30% | 1017.2 hPa | 0 mm | - | - | - |
| 1777649604 | 23.33° C | 30% | 1017.2 hPa | 0 mm | - | - | - |
| 1777648706 | 23.89° C | 27% | 1018.1 hPa | 0 mm | - | - | - |
* Rain latest hour (hover to see other rain measurements)
** Current wind speed in m/s (hover to see current wind gust speed)